Flag for Germany Weather past 2 weeks in Bornheim (Rheinland), North Rhine-Westphalia, Germany

43 °F

Light rain. Overcast.

Feels Like: 36 °F
Forecast: 46 / 54 °F
Wind: 14 mph from Southwest

Location: Bonn-Hangelar

Current Time: Nov 29, 2015 at 4:36:24 AM

Latest Report: Nov 29, 2015 at 4:00 AM

Visibility: 25 mi

Pressure: 29.83 "Hg

Humidity: 96%

Dew point: 42 °F

Location of Bornheim (Rheinland)Location

Historic Weather in Bornheim (Rheinland) — Graph


Bornheim (Rheinland) temperature yesterday

Maximum temperature yesterday: 42 °F (at 9:00 PM)
Minimum temperature yesterday: 39 °F (at 4:00 AM)
Average temperature yesterday: 40 °F

Past Weeks' High & Low Weather Summary

High59 °F (Nov 17, 10:00 PM)100% (Nov 17, 12:00 AM)30.34 "Hg (Nov 17, 12:00 AM)
Low32 °F (Nov 23, 4:00 AM)72% (Nov 18, 8:00 AM)29.38 "Hg (Nov 21, 1:00 PM)
Average44 °F91%29.92 "Hg
* Reported Nov 14 3:00 AM — Nov 29 3:00 AM, Bornheim (Rheinland), Weather by CustomWeather, © 2015

Note: Actual official high and low records may vary slightly from our data, if they occured in-between our weather recording intervals... More about our weather records


Bornheim (Rheinland) weather history for previous 24 hours

Time TempWeatherWind HumidityBarometerVisibility
3:00 AM
Sun, Nov 29
42 °FRain. Overcast.15 mph94%29.83 "Hg4 mi
2:00 AM42 °FLight rain. Overcast.16 mph91%29.84 "Hg31 mi
9:00 PM
Sat, Nov 28
42 °FOvercast.15 mph82%29.94 "Hg28 mi
8:00 PM41 °FOvercast.12 mph83%29.96 "Hg25 mi
7:00 PM41 °FPassing clouds.12 mph81%29.98 "Hg22 mi
6:00 PM40 °FOvercast.9 mph79%29.99 "Hg28 mi
5:00 PM39 °FOvercast.8 mph79%30.01 "Hg28 mi
4:00 PM40 °FOvercast.8 mph76%30.01 "Hg34 mi
3:00 PM42 °FScattered clouds.9 mph79%30.00 "Hg14 mi
2:00 PM41 °FPartly sunny.12 mph83%30.00 "Hg14 mi
1:00 PM41 °FScattered clouds.9 mph86%29.99 "Hg16 mi
12:00 PM40 °FPassing clouds.8 mph88%29.98 "Hg14 mi
11:00 AM40 °FPassing clouds.8 mph90%29.97 "Hg12 mi
10:00 AM39 °FPartly sunny.8 mph95%29.95 "Hg15 mi
9:00 AM39 °FOvercast.8 mph96%29.93 "Hg17 mi
7:00 AM41 °FLow clouds.10 mph97%29.83 "Hg22 mi
5:00 AM39 °FLight freezing rain. Low clouds.8 mph99%29.76 "Hg2 mi
4:00 AM39 °FLight freezing rain. Low clouds.13 mph98%29.74 "Hg3 mi
Weather by CustomWeather, © 2015

See weather overviewHow to use our weather pages